New York, NY

11:39 AM EST on February 23, 2018 (GMT -0500)
La Guardia

Weather History for KLGA - May, 2013

Change the Weather History Date:

Thursday, May 2, 2013

  Actual Average Record
Temperature  
Mean Temperature 59 °F 58 °F  
Max Temperature 68 °F 67 °F 90 °F (2001)
Min Temperature 50 °F 50 °F 40 °F (1963)
Degree Days  
Heating Degree Days 6 7  
Month to date heating degree days 14 15  
Since 1 July heating degree days 4323 4529  
Cooling Degree Days 0 1  
Month to date cooling degree days 0 2  
Year to date cooling degree days 0 10  
Growing Degree Days 9 (Base 50)    
Moisture  
Dew Point 41 °F    
Average Humidity 59    
Maximum Humidity 80    
Minimum Humidity 37    
Precipitation  
Precipitation 0.00 in 0.12 in 0.83 in (1989)
Month to date precipitation 0.00 0.22  
Year to date precipitation 9.42 14.12  
Snow  
Snow 0.00 in 0.00 in - ()
Month to date snowfall 0.0 0.0  
Since 1 July snowfall 22.2 26.9  
Snow Depth 0.00 in    
Sea Level Pressure  
Sea Level Pressure 30.40 in    
Wind  
Wind Speed 6 mph (ESE)    
Max Wind Speed 14 mph    
Max Gust Speed 18 mph    
Visibility 10 miles    
Events      
T = Trace of Precipitation, MM = Missing Value Source: NWS Daily Summary

Daily Weather History Graph

Daily Weather History Graph

Search for Another Location

Airport or City:

Trip Planner

Search our weather history database for the weather conditions in past years. The results will help you decide how hot, cold, wet, or windy it might be!

Date:

Astronomy

May. 02, 2013 Rise Set
Actual Time 5:52 AM EDT 7:53 PM EDT
Civil Twilight 5:22 AM EDT 8:23 PM EDT
Nautical Twilight 4:46 AM EDT 8:59 PM EDT
Astronomical Twilight 4:06 AM EDT 9:39 PM EDT
Moon 1:40 AM EDT (5/2) 12:37 PM EDT (5/2)
Length of Visible Light 15h 00m
Length of Day
14h 00m
Waning Gibbous, 48% of the Moon is Illuminated
May 2
Waning Gibbous
May 9
New
May 18
First Quarter
May 25
Full
May 31
Last Quarter

Hourly Weather History & Observations

Time (EDT) Temp. Dew Point Humidity Pressure Visibility Wind Dir Wind Speed Gust Speed Precip Events Conditions
12:51 AM 53.1 °F 42.1 °F 66% 30.46 in 10.0 mi Calm Calm - N/A   Clear
1:51 AM 53.1 °F 41.0 °F 64% 30.44 in 10.0 mi Calm Calm - N/A   Clear
2:51 AM 52.0 °F 42.1 °F 69% 30.43 in 10.0 mi ENE 3.5 mph - N/A   Clear
3:51 AM 50.0 °F 44.1 °F 80% 30.42 in 10.0 mi East 3.5 mph - N/A   Clear
4:51 AM 50.0 °F 45.0 °F 83% 30.41 in 10.0 mi NE 4.6 mph - N/A   Clear
5:51 AM 50.0 °F 45.0 °F 83% 30.42 in 10.0 mi ENE 3.5 mph - N/A   Clear
6:51 AM 51.1 °F 45.0 °F 80% 30.43 in 10.0 mi ESE 3.5 mph - N/A   Clear
7:29 AM 53.6 °F 44.6 °F 72% 30.45 in 10.0 mi NE 4.6 mph - N/A   Partly Cloudy
7:51 AM 53.1 °F 45.0 °F 74% 30.45 in 10.0 mi ENE 4.6 mph - N/A   Partly Cloudy
8:51 AM 57.2 °F 44.6 °F 63% 30.46 in 10.0 mi NE 5.8 mph - N/A   Scattered Clouds
9:51 AM 59.0 °F 41.0 °F 51% 30.46 in 10.0 mi NE 4.6 mph - N/A   Partly Cloudy
10:51 AM 62.1 °F 39.9 °F 44% 30.46 in 10.0 mi NE 4.6 mph - N/A   Clear
11:51 AM 64.0 °F 39.9 °F 41% 30.45 in 10.0 mi NE 4.6 mph - N/A   Partly Cloudy
12:51 PM 66.9 °F 39.9 °F 37% 30.42 in 10.0 mi ENE 4.6 mph - N/A   Partly Cloudy
1:51 PM 66.9 °F 41.0 °F 39% 30.41 in 10.0 mi SSE 8.1 mph - N/A   Partly Cloudy
2:51 PM 66.9 °F 39.9 °F 37% 30.40 in 10.0 mi SSW 8.1 mph - N/A   Partly Cloudy
3:51 PM 66.9 °F 39.0 °F 36% 30.38 in 10.0 mi South 10.4 mph - N/A   Partly Cloudy
4:51 PM 66.0 °F 39.0 °F 37% 30.37 in 10.0 mi South 11.5 mph - N/A   Partly Cloudy
5:51 PM 64.9 °F 37.9 °F 37% 30.35 in 10.0 mi South 10.4 mph - N/A   Partly Cloudy
6:51 PM 64.0 °F 37.9 °F 38% 30.33 in 10.0 mi South 10.4 mph - N/A   Clear
7:51 PM 61.0 °F 37.0 °F 41% 30.33 in 10.0 mi South 12.7 mph - N/A   Clear
8:51 PM 60.1 °F 39.9 °F 47% 30.34 in 10.0 mi South 6.9 mph - N/A   Partly Cloudy
9:51 PM 60.1 °F 37.0 °F 42% 30.34 in 10.0 mi SSE 5.8 mph - N/A   Partly Cloudy
10:51 PM 59.0 °F 37.9 °F 46% 30.35 in 10.0 mi ESE 5.8 mph - N/A   Scattered Clouds
11:51 PM 57.0 °F 41.0 °F 55% 30.37 in 10.0 mi East 3.5 mph - N/A   Scattered Clouds